Wind_Speed
28 30 31 31 32 32 33 34 34 34 34 35 34 35 36 37 37 38 38 39 39 40 41 42 42 42 42 42 43 42 42 42 42 42 42 42 42 43 43 44 44 44 44 44
28 29 29 30 31 31 31 32 33 33 34 35 35 35 35 36 36 37 37 38 39 40 41 42 43 43 43 43 43 43 43 43 43 43 43 43 44 44 44 45 45 46 46 46
27 27 28 29 29 30 30 31 32 33 33 34 35 35 34 35 35 36 37 37 38 39 41 42 43 43 44 44 44 44 44 44 44 44 44 45 45 45 46 46 46 46 46 47
27 27 27 27 28 29 30 31 32 33 34 34 35 36 33 34 35 36 36 36 37 38 39 40 41 42 43 44 44 45 45 45 45 45 46 47 46 46 47 47 47 47 47 47
26 26 26 26 27 28 29 30 31 32 34 34 34 36 33 34 34 35 36 36 37 37 37 38 39 40 41 43 43 43 44 45 45 45 46 47 47 47 47 47 47 47 47 47
24 25 25 25 26 27 28 29 30 31 32 33 32 34 33 32 32 33 35 35 35 36 36 36 37 38 39 40 42 43 44 44 45 45 46 47 47 47 47 48 48 48 48 48
23 23 24 24 25 26 26 27 28 29 29 30 30 32 32 31 31 31 32 33 34 34 34 34 35 37 38 39 41 42 43 44 45 45 46 46 46 46 46 47 48 49 49 49
22 21 21 22 23 24 24 25 26 27 27 28 28 29 28 28 28 29 30 31 32 32 33 33 34 35 37 38 40 41 42 44 45 45 45 46 47 46 46 47 47 48 49 48
21 21 21 21 21 21 22 22 23 25 26 26 25 26 25 25 25 26 26 27 28 29 30 32 33 34 36 37 38 39 41 42 43 44 45 46 46 46 46 46 46 46 46 47
21 21 21 21 21 21 22 23 23 24 25 25 24 23 23 22 23 23 23 24 25 27 28 29 31 33 34 36 38 39 41 42 42 43 44 44 44 44 45 45 44 44 45 46
21 22 21 22 22 22 22 22 23 24 24 25 24 22 21 20 21 21 22 23 24 25 27 28 30 31 33 34 36 38 39 39 40 41 42 42 43 43 43 43 43 43 44 45
21 22 22 21 22 22 22 21 22 23 24 24 24 22 21 21 21 22 23 24 25 26 27 27 28 30 32 33 34 35 36 37 38 39 40 41 41 42 42 42 42 43 43 43
21 22 22 21 21 21 22 22 23 23 24 24 24 21 22 22 22 23 23 24 25 27 27 28 29 30 31 32 33 34 35 35 36 36 37 38 39 39 40 40 41 41 42 43
22 23 23 22 22 22 23 23 24 24 24 24 23 22 22 23 24 24 24 24 25 26 27 28 29 30 30 31 32 32 32 32 32 33 35 36 37 38 39 39 39 40 41 42
23 23 23 23 23 23 23 23 24 25 25 25 23 23 22 24 24 24 25 25 25 26 27 28 28 29 29 30 31 31 31 31 31 32 32 33 35 36 38 39 40 40 41 41
24 24 23 23 24 24 24 23 24 25 25 25 25 23 23 24 24 24 24 24 25 26 27 27 28 28 28 29 29 30 31 31 30 31 31 32 33 35 36 38 39 39 40 41
24 24 24 24 23 24 24 23 24 25 25 25 24 23 24 25 25 24 24 25 25 26 26 26 26 27 28 28 29 29 29 30 30 30 30 31 32 33 34 36 37 38 39 39
23 23 24 24 24 25 23 23 24 25 25 25 25 25 25 25 25 25 25 25 25 25 25 25 25 26 27 27 27 27 28 29 30 30 30 31 32 32 33 34 35 36 37 36
23 23 23 24 24 24 23 22 23 24 24 25 25 25 25 25 26 26 26 26 26 25 25 25 26 26 26 26 26 27 28 28 29 29 29 30 31 31 32 32 33 34 34 34
22 22 23 23 24 24 22 21 23 24 24 24 25 25 25 25 25 25 26 26 26 26 26 26 26 26 26 27 27 27 27 27 28 28 29 30 30 30 30 31 31 32 32 32
22 22 22 23 23 23 22 21 22 23 23 24 24 24 25 26 25 26 26 27 26 26 26 26 26 26 27 27 26 26 26 27 27 29 29 29 29 29 29 29 30 30 30 30
22 22 21 21 22 21 21 21 22 22 23 23 24 24 24 25 25 25 25 25 25 25 25 25 26 26 26 26 26 26 26 27 28 28 28 28 28 28 28 27 27 27 27 27
22 21 21 21 21 21 21 21 21 22 22 22 23 23 23 23 24 24 24 24 24 25 24 24 24 24 25 26 26 26 27 27 26 26 26 27 27 26 26 25 25 24 24 24
21 21 21 21 21 22 22 22 23 23 23 23 23 22 22 22 22 23 23 23 23 23 23 23 23 24 24 25 26 25 25 25 24 24 24 25 24 24 24 23 23 22 21 21
21 22 22 22 22 23 22 23 23 23 23 22 22 22 21 21 21 21 21 21 21 22 22 22 23 23 23 24 24 24 23 23 23 23 23 23 22 22 21 21 20 20 20 20
21 22 22 22 22 22 22 23 22 23 22 22 22 22 21 20 19 19 20 20 20 21 21 21 21 22 22 22 22 22 22 21 21 21 21 21 20 20 19 19 19 19 19 20
Wind_Direction
265 265 265 266 266 266 266 266 265 263 262 261 260 259 258 258 258 256 255 255 255 254 253 254 255 255 255 255 256 256 257 257 258 259 260 260 261 262 263 263 263 264 264 264
266 267 266 266 265 265 266 266 265 264 263 262 261 260 258 258 259 258 256 255 255 255 254 255 255 256 256 257 257 257 258 258 259 260 261 261 262 262 264 264 264 264 264 264
268 269 268 267 266 266 266 266 266 266 264 263 263 261 260 259 259 258 257 257 256 256 256 255 256 256 257 257 258 259 259 260 260 260 261 262 262 263 264 265 265 264 265 265
268 267 267 267 266 266 266 266 266 266 264 263 264 264 260 260 260 259 258 258 258 257 258 258 257 257 257 258 258 259 259 261 261 261 261 262 263 264 265 265 265 265 265 264
269 268 268 268 267 267 267 267 267 266 266 265 265 265 262 262 261 260 259 259 259 259 260 259 259 258 258 258 258 259 260 261 262 262 263 263 264 265 265 264 264 264 265 265
270 269 268 268 268 268 268 268 267 267 267 266 265 266 265 264 263 262 261 260 260 260 261 260 260 260 259 259 260 260 261 262 262 263 263 264 265 265 265 264 264 264 265 266
270 269 269 270 270 269 269 269 270 269 269 269 269 268 268 268 266 264 264 262 260 260 261 261 262 262 262 262 262 262 262 262 263 264 264 264 265 265 265 265 265 265 266 266
271 271 271 272 272 271 271 270 271 272 273 274 271 270 270 272 269 266 265 264 262 261 261 263 264 265 265 264 264 264 263 264 264 264 264 264 265 265 266 265 266 266 266 266
272 270 271 272 273 274 272 269 271 273 275 275 273 273 273 275 273 270 267 265 263 263 263 264 266 267 266 266 266 266 266 266 266 265 265 265 266 266 266 266 267 267 267 267
270 270 270 271 271 272 272 271 271 272 275 277 276 277 277 276 273 270 267 266 264 265 265 265 266 267 268 268 268 269 269 268 267 266 266 266 266 267 267 268 268 267 267 267
270 271 272 272 272 273 273 271 270 271 273 276 278 279 279 277 274 272 271 271 269 267 268 267 267 269 270 271 272 272 271 270 269 269 268 268 268 267 268 268 268 268 267 267
271 272 273 273 272 272 273 274 272 272 274 275 278 278 279 276 275 276 275 274 273 271 271 271 273 274 274 275 275 274 274 273 272 271 270 270 269 269 269 269 268 269 268 268
271 272 274 272 271 270 272 274 274 273 273 274 276 279 279 277 277 278 278 277 276 275 275 275 276 276 277 277 277 277 276 275 274 273 272 271 270 270 270 269 269 270 269 269
270 271 272 273 273 273 272 273 274 274 275 276 277 278 278 278 278 279 279 278 277 277 277 277 278 278 279 280 279 278 278 278 276 274 274 273 272 272 270 270 270 271 270 270
268 270 272 273 274 274 273 273 273 274 276 278 278 278 276 276 276 277 278 278 277 277 278 280 281 280 281 282 281 279 279 280 279 277 277 276 274 273 272 271 271 271 272 272
267 269 271 273 274 273 273 272 273 275 276 279 278 277 275 276 276 277 277 279 280 280 280 281 282 282 283 283 282 281 281 281 282 282 279 278 278 276 274 273 273 273 274 274
268 271 272 274 275 275 274 275 276 277 277 279 279 279 276 276 277 277 277 279 281 282 282 282 283 283 284 285 285 284 283 282 284 285 284 282 281 280 278 275 275 275 276 275
269 272 273 275 276 275 278 277 277 277 277 278 279 279 278 277 277 279 280 282 282 281 282 283 285 286 287 288 287 287 286 285 286 287 287 286 284 282 281 278 277 277 277 276
270 272 274 276 277 277 277 278 279 279 279 279 281 281 279 277 277 278 281 281 281 282 283 284 286 287 289 289 289 289 288 287 288 288 288 289 288 286 284 281 280 279 278 278
269 272 274 277 278 279 281 281 281 280 280 281 282 281 280 278 277 278 279 280 281 282 283 284 286 287 288 290 291 290 289 288 288 289 290 291 291 289 286 285 284 282 281 280
269 272 274 277 279 280 283 284 283 283 284 284 284 283 281 281 281 280 280 281 281 282 282 283 284 286 288 290 292 292 291 290 290 292 293 293 292 291 288 287 286 284 282 281
269 271 274 277 279 283 285 284 284 284 284 285 286 286 284 283 283 282 282 283 282 282 283 284 285 287 289 291 292 294 293 292 292 293 294 295 294 293 291 289 287 285 284 283
266 270 272 276 280 282 283 284 285 284 284 285 287 288 287 287 286 285 284 284 283 283 283 285 286 288 291 292 294 295 295 295 294 295 296 297 296 295 294 292 289 287 285 284
265 268 271 273 276 279 282 282 284 286 286 287 289 291 290 289 288 286 284 284 284 283 284 286 288 290 291 292 294 296 297 298 298 299 299 299 299 298 295 293 292 290 288 286
267 269 271 272 274 277 281 283 285 287 288 287 288 290 291 290 289 288 286 285 285 285 286 288 289 290 292 294 295 296 298 300 301 302 302 302 301 299 298 296 293 291 291 290
268 271 273 274 275 277 279 281 284 286 286 285 286 288 290 289 289 291 290 288 288 287 288 290 291 292 294 296 297 297 298 302 305 307 306 306 303 302 301 299 295 293 293 294
Height
5672 5673 5673 5674 5674 5674 5675 5675 5676 5677 5676 5677 5678 5679 5681 5682 5683 5685 5687 5688 5690 5691 5692 5694 5695 5697 5699 5701 5702 5704 5706 5707 5708 5710 5711 5712 5713 5714 5715 5716 5717 5717 5718 5718
5666 5666 5666 5666 5666 5666 5666 5667 5667 5668 5668 5668 5669 5670 5672 5673 5674 5676 5677 5679 5680 5682 5683 5684 5686 5687 5689 5691 5692 5694 5695 5697 5698 5700 5701 5702 5703 5704 5705 5706 5706 5707 5707 5707
5658 5660 5659 5659 5659 5659 5659 5659 5659 5660 5660 5659 5660 5661 5664 5665 5665 5666 5668 5669 5671 5672 5673 5674 5676 5677 5679 5681 5682 5683 5685 5686 5687 5689 5690 5691 5692 5693 5694 5695 5695 5695 5696 5696
5651 5651 5651 5651 5651 5651 5651 5651 5651 5651 5651 5652 5652 5652 5656 5656 5656 5657 5659 5660 5661 5662 5663 5664 5666 5667 5669 5670 5671 5673 5674 5675 5676 5678 5679 5680 5681 5682 5683 5683 5684 5684 5684 5685
5644 5644 5644 5644 5644 5644 5643 5643 5643 5643 5643 5643 5644 5643 5648 5648 5648 5649 5650 5651 5652 5653 5654 5655 5656 5657 5658 5659 5661 5662 5663 5664 5665 5667 5667 5668 5669 5670 5671 5671 5672 5672 5673 5673
5638 5638 5638 5638 5637 5637 5636 5636 5635 5635 5635 5636 5637 5636 5638 5640 5640 5640 5641 5641 5642 5644 5645 5645 5646 5647 5648 5649 5650 5651 5653 5654 5654 5655 5656 5657 5657 5658 5659 5659 5660 5660 5661 5661
5633 5632 5632 5631 5631 5630 5630 5630 5629 5628 5628 5629 5630 5629 5631 5632 5632 5632 5632 5633 5634 5635 5636 5637 5637 5638 5639 5639 5640 5641 5642 5643 5643 5644 5644 5645 5645 5646 5646 5647 5647 5648 5648 5648
5627 5627 5627 5626 5625 5624 5624 5624 5624 5623 5622 5623 5623 5622 5625 5625 5624 5624 5624 5625 5625 5627 5627 5628 5629 5629 5629 5630 5630 5631 5631 5632 5632 5632 5632 5633 5633 5633 5634 5634 5635 5635 5635 5636
5621 5621 5621 5620 5619 5619 5618 5618 5618 5617 5616 5616 5616 5617 5619 5618 5617 5617 5617 5617 5618 5619 5619 5620 5620 5620 5620 5620 5621 5621 5621 5621 5621 5621 5621 5621 5621 5621 5621 5622 5622 5622 5622 5622
5615 5616 5616 5615 5614 5614 5614 5613 5612 5612 5611 5610 5611 5612 5612 5611 5611 5610 5610 5610 5611 5611 5612 5612 5612 5612 5612 5611 5611 5611 5610 5609 5609 5608 5608 5608 5608 5609 5609 5609 5610 5610 5610 5609
5610 5610 5610 5610 5609 5609 5609 5608 5607 5606 5606 5606 5605 5609 5607 5605 5605 5605 5604 5604 5604 5604 5604 5604 5604 5604 5603 5602 5602 5601 5600 5599 5598 5597 5597 5596 5596 5596 5596 5597 5597 5597 5597 5597
5605 5605 5604 5605 5604 5603 5603 5603 5602 5602 5601 5600 5600 5605 5601 5599 5599 5598 5598 5598 5597 5597 5597 5597 5596 5595 5594 5593 5592 5591 5590 5588 5587 5586 5585 5585 5585 5584 5584 5585 5585 5585 5585 5585
5599 5599 5599 5599 5601 5599 5598 5597 5597 5596 5596 5595 5595 5599 5595 5594 5593 5592 5592 5591 5590 5590 5590 5589 5588 5587 5586 5585 5583 5582 5580 5579 5577 5576 5575 5574 5573 5573 5573 5573 5573 5573 5572 5572
5594 5593 5594 5594 5593 5593 5593 5592 5591 5590 5590 5590 5590 5591 5590 5587 5586 5586 5585 5584 5584 5583 5582 5581 5580 5579 5578 5576 5574 5573 5571 5569 5568 5566 5565 5563 5562 5562 5561 5561 5561 5560 5560 5560
5588 5588 5588 5588 5587 5587 5586 5586 5585 5584 5584 5584 5584 5584 5583 5581 5580 5580 5579 5578 5577 5576 5575 5574 5572 5571 5569 5568 5566 5564 5562 5560 5558 5557 5555 5553 5552 5551 5550 5549 5549 5549 5548 5548
5582 5582 5582 5582 5581 5580 5580 5580 5579 5578 5578 5577 5577 5578 5576 5575 5574 5573 5572 5571 5570 5569 5568 5566 5565 5563 5561 5559 5557 5555 5553 5551 5550 5548 5546 5544 5542 5540 5539 5538 5537 5537 5537 5536
5576 5576 5576 5576 5575 5574 5575 5575 5573 5573 5573 5572 5571 5572 5570 5569 5568 5567 5566 5565 5563 5562 5560 5559 5557 5556 5554 5552 5549 5547 5545 5543 5541 5539 5537 5534 5532 5530 5528 5527 5527 5526 5525 5524
5570 5569 5569 5569 5569 5568 5572 5569 5568 5567 5566 5565 5565 5564 5563 5562 5561 5560 5559 5558 5556 5555 5553 5551 5550 5548 5546 5544 5541 5539 5537 5535 5533 5530 5528 5526 5523 5521 5519 5517 5516 5515 5514 5513
5564 5564 5563 5563 5562 5562 5564 5563 5561 5560 5560 5559 5558 5557 5556 5555 5554 5553 5552 5550 5549 5548 5546 5544 5543 5541 5539 5536 5534 5531 5529 5527 5524 5522 5520 5518 5515 5513 5510 5508 5507 5505 5504 5503
5558 5558 5558 5557 5556 5556 5559 5557 5555 5554 5553 5553 5551 5550 5549 5548 5548 5548 5545 5543 5542 5540 5539 5537 5535 5533 5531 5529 5526 5524 5521 5519 5516 5514 5512 5509 5507 5504 5502 5500 5498 5496 5495 5494
5552 5552 5552 5551 5550 5550 5552 5550 5549 5549 5549 5546 5544 5543 5542 5540 5540 5539 5537 5536 5534 5533 5531 5530 5528 5526 5524 5521 5519 5516 5514 5511 5509 5507 5504 5501 5499 5496 5494 5492 5490 5488 5486 5485
5546 5546 5546 5545 5545 5548 5546 5544 5543 5542 5540 5539 5537 5536 5535 5533 5532 5530 5529 5528 5527 5525 5524 5522 5521 5519 5516 5514 5512 5510 5507 5504 5502 5499 5496 5494 5491 5489 5486 5484 5482 5480 5479 5477
5540 5541 5541 5541 5543 5541 5539 5538 5537 5535 5534 5532 5531 5529 5528 5526 5525 5523 5522 5521 5519 5518 5517 5515 5514 5512 5510 5507 5505 5503 5500 5497 5494 5492 5489 5487 5484 5481 5479 5477 5475 5473 5471 5470
5534 5534 5534 5535 5535 5534 5533 5531 5530 5529 5527 5526 5524 5523 5521 5520 5518 5517 5515 5514 5513 5511 5510 5509 5507 5505 5503 5501 5498 5496 5493 5490 5488 5485 5483 5480 5478 5475 5472 5470 5468 5467 5465 5464
5528 5528 5528 5528 5529 5527 5527 5525 5524 5523 5521 5520 5518 5516 5515 5514 5512 5511 5510 5508 5507 5505 5504 5502 5500 5499 5497 5494 5492 5489 5486 5484 5482 5479 5477 5474 5471 5469 5467 5465 5463 5461 5460 5458
5523 5522 5522 5522 5522 5521 5521 5519 5518 5517 5515 5514 5512 5511 5509 5508 5507 5505 5504 5502 5501 5499 5497 5496 5494 5492 5490 5488 5486 5483 5481 5479 5476 5474 5471 5468 5466 5464 5461 5459 5457 5455 5454 5452